Regional Weather Roundup
Issued by NWS Midland/Odessa, TX

Skip options and go directly to product.
Home | Oldest Version | Next Version | Current Version | All | Text Only | Save Text | Print | Product List | Glossary On

Skip product version selection by date and time.   
562
ASUS44 KMAF 251502
RWRMAF
MIDLAND AREA WEATHER ROUNDUP
NATIONAL WEATHER SERVICE MIDLAND TX
900 AM CST TUE NOV 25 2014

...IN SOUTHWEST TEXAS AND SOUTHEAST NEW MEXICO...

CITY           SKY/WX    TMP DP  RH WIND       PRES   REMARKS
ALPINE         SUNNY     40  13  33 N8        30.47R WCI  35
ANDREWS        FAIR      36  21  54 N7        30.39R WCI  30
ARTESIA        NOT AVBL
BIG SPRING     SUNNY     38  26  60 SW3       30.40R
CARLSBAD       SUNNY     40  19  43 NW10      30.43R WCI  33
DRYDEN           N/A     49  21  33 NW18G24   30.35R
FORT STOCKTON  SUNNY     39  17  41 W14       30.43R WCI  31
GUAD PASS      NOT AVBL
HOBBS          SUNNY     34  19  55 NW10      30.39R WCI  26
MARFA          SUNNY     37  14  38 N10       30.42R WCI  30
MIDLAND AIRPK  SUNNY     37  25  60 NW7       30.38R WCI  32
MIDLAND INTL   SUNNY     39  22  50 N12       30.38R WCI  32
ODESSA         SUNNY     39  21  48 N13       30.39R WCI  31
PECOS          SUNNY     38  20  47 W9        30.45R WCI  32
PRESIDIO       FAIR      43  14  30 CALM      30.43R
SEMINOLE       SUNNY     34  20  57 NW8       30.39R WCI  27
SNYDER         SUNNY     39  26  60 N7        30.35R WCI  34
WINK           SUNNY     39  18  42 N9        30.40R WCI  33
$$
...OTHER STATIONS IN TEXAS...

CITY           SKY/WX    TMP DP  RH WIND       PRES   REMARKS
ABILENE        SUNNY     42  29  59 NW9       30.36R WCI  37
AMARILLO       SUNNY     34  23  64 W7        30.31R WCI  28
AUSTIN         MOSUNNY   49  36  61 W7        30.33R
BROWNSVILLE    CLOUDY    59  48  67 N10       30.26R
CORPUS CHRISTI CLOUDY    54  41  61 N9        30.31R
DALLAS FTW     MOSUNNY   46  31  55 CALM      30.29R
DEL RIO        SUNNY     48  35  60 N6        30.37R
EL PASO        MOSUNNY   40  14  34 CALM      30.45R
HOUSTON INT    CLOUDY    50  35  56 N3        30.28R
LUBBOCK        SUNNY     34  21  59 NW8       30.35R WCI  27
SAN ANGELO     SUNNY     38  30  73 CALM      30.36R
SAN ANTONIO    MOSUNNY   50  32  50 NW7       30.34R
WACO           SUNNY     43  33  68 W5        30.32R
WICHITA FALLS  NOT AVBL
$$
...OTHER LOCATIONS IN NEW MEXICO...

CITY           SKY/WX    TMP DP  RH WIND       PRES   REMARKS
ALAMAGORDO     SUNNY     32  16  51 S3        30.46R
ALBUQUERQUE    MOSUNNY   23  12  62 SE5       30.42F WCI  17
CANNON AFB     SUNNY     31  20  62 W10       30.34R WCI  22
CLOVIS         SUNNY     30  19  64 W9        30.33S WCI  22
HOLLOMAN AFB   SUNNY     29  14  55 E5        30.45R WCI  23
ROSWELL        SUNNY     32  18  56 CALM      30.40R
RUIDOSO        SUNNY     27   9  46 W5        30.36F WCI  21
SANTA FE       MOSUNNY   19  11  70 NW3       30.36S
TRUTH OR CONSE SUNNY     31   7  36 NW5       30.46R WCI  26
TUCUMCARI      SUNNY     31  23  72 SW9       30.30F WCI  23
$$

USA.gov is the U.S. government's official web portal to all federal, state and local government web resources and services.